Dewpoint
-2 -1 -2 -2 -3 -2 -3 -4 -3 -2 -1 -1 -1 -1 -1 -1 -0 -0 -0 0 -1 -1 -0 -2 -3 -1 -1 -1 1 2 2 1 1 4 5 2 3 3 3 2 3 4 4 4 3 4 5 -2 -2 1 -1 -7 -8 -5
-2 -2 -2 -3 -3 -4 -4 -2 -2 -2 -2 -1 -1 -1 -0 -1 -0 0 1 0 -0 -1 0 -2 -2 -2 -1 -1 -1 2 2 2 2 2 2 2 2 2 2 4 0 2 2 3 3 3 -1 -3 -5 -6 -10 -10 -10 -10
-3 -3 -3 -3 -4 -4 -3 -3 -3 -3 -3 -3 -2 -2 -0 -0 0 1 0 1 -0 -0 1 2 0 -0 1 -0 -1 1 1 1 1 -0 1 1 2 0 2 1 1 -0 -1 1 1 -0 -4 -7 -8 -9 -11 -11 -12 -13
-3 -3 -3 -3 -4 -4 -4 -4 -4 -5 -6 -4 -4 -3 -0 -0 -0 0 -0 0 1 1 1 1 2 2 2 2 1 1 0 0 0 -1 1 1 1 -0 1 1 0 -0 -1 0 1 -0 -4 -5 -7 -11 -12 -12 -12 -12
-3 -4 -4 -3 -4 -4 -5 -5 -4 -5 -6 -5 -4 -3 -0 0 -0 -0 1 0 0 -0 0 -0 1 1 2 2 2 2 1 -1 -1 1 1 1 1 1 1 1 2 -0 -0 1 2 -0 -4 -6 -9 -12 -12 -12 -12 -12
-3 -3 -3 -3 -4 -5 -5 -4 -5 -6 -8 -6 -4 -4 -3 -1 -0 -0 -0 -0 0 -1 -1 -0 -1 0 2 2 2 1 1 1 0 0 0 0 -2 -0 2 2 0 -0 -2 -5 -2 -1 -7 -9 -9 -11 -10 -8 -8 -9
-2 -2 -3 -4 -4 -5 -5 -5 -5 -7 -8 -7 -8 -6 -3 -1 -1 -1 -1 -1 -0 -1 -1 -0 -0 -1 -0 -0 -0 -0 0 -0 0 -0 -0 0 0 -0 0 -1 -3 -1 -2 -7 -5 -7 -4 -7 -5 -7 -8 -7 -8 -7
-3 -2 -2 -3 -5 -6 -5 -5 -5 -8 -9 -11 -9 -12 -8 -5 -4 -1 -2 -1 -1 -2 -1 -0 -0 -0 -1 -1 -0 -0 -0 -0 -0 -0 -0 -0 -1 -1 -1 -4 -2 -3 -5 -5 -7 -9 -8 -6 -6 -6 -7 -7 -7 -7
-5 -3 -3 -3 -4 -6 -7 -5 -6 -9 -11 -12 -14 -14 -11 -6 -5 -6 -4 -4 -2 -2 -1 -1 0 -0 -1 -1 -1 -1 -2 -0 -1 -0 -0 -1 -0 -1 -4 -4 -5 -6 -6 -5 -6 -7 -6 -6 -5 -6 -6 -6 -7 -4
-7 -5 -4 -4 -4 -5 -7 -6 -6 -9 -12 -11 -12 -12 -9 -6 -7 -8 -6 -8 -6 -1 -1 -1 -1 -1 -1 -1 -1 -1 -1 -1 -0 -0 -2 -0 -2 -2 -4 -5 -6 -7 -7 -7 -5 -3 -3 -3 -4 -4 -5 -5 -5 -3
-9 -7 -6 -5 -5 -5 -6 -7 -8 -9 -9 -6 -4 -5 -7 -7 -9 -11 -4 -3 -3 -1 -1 -1 -1 -1 -1 -1 -1 -2 -1 -2 -1 -1 -1 -1 -2 -1 -2 -6 -6 -7 -7 -8 -9 -7 -7 -8 -5 -4 -3 -3 -3 -4
-13 -10 -7 -7 -6 -5 -6 -6 -7 -9 -7 -3 -2 -3 -5 -7 -6 -6 -4 -3 -3 -1 -1 -1 -1 -2 -3 -4 -2 -3 -2 -2 -1 -3 -2 -2 -2 -1 -2 -3 -3 -4 -5 -6 -6 -5 -5 -4 -3 -3 -3 -4 -4 -5
-17 -12 -10 -8 -7 -6 -7 -8 -8 -9 -8 -4 -4 -7 -8 -6 -5 -2 -2 -2 -2 -3 -3 -4 -2 -3 -5 -5 -3 -3 -4 -2 -4 -4 -3 -3 -2 -2 -2 -3 -3 -4 -4 -4 -3 -3 -3 -3 -3 -4 -4 -4 -4 -4
-17 -16 -12 -10 -7 -8 -8 -8 -8 -10 -4 -3 -4 -7 -6 -6 -3 -2 -3 -3 -3 -3 -4 -4 -3 -3 -4 -3 -3 -3 -2 -3 -4 -4 -3 -3 -2 -3 -3 -3 -4 -3 -4 -4 -4 -4 -4 -4 -4 -4 -4 -4 -4 -4
-15 -17 -16 -11 -7 -8 -8 -8 -8 -9 -4 -3 -4 -5 -5 -4 -3 -3 -3 -4 -4 -4 -5 -5 -4 -4 -3 -4 -3 -4 -4 -4 -3 -4 -5 -3 -2 -2 -3 -4 -4 -4 -4 -4 -5 -5 -5 -5 -4 -5 -5 -5 -6 -5
-16 -15 -15 -7 -6 -8 -8 -8 -8 -6 -4 -4 -4 -5 -5 -7 -9 -6 -4 -3 -2 -4 -5 -6 -4 -6 -4 -3 -4 -5 -4 -4 -4 -4 -3 -2 -3 -3 -3 -4 -4 -4 -5 -5 -5 -5 -5 -5 -5 -6 -6 -6 -6 -5
-20 -13 -12 -5 -6 -7 -10 -7 -6 -4 -4 -3 -6 -4 -4 -6 -8 -5 -5 -4 -2 -4 -5 -4 -5 -8 -5 -4 -4 -4 -4 -5 -7 -3 -2 -2 -2 -3 -3 -4 -4 -4 -5 -5 -5 -5 -6 -6 -6 -6 -8 -7 -7 -7
-27 -14 -10 -8 -6 -10 -10 -4 -3 -3 -4 -4 -5 -4 -5 -5 -5 -5 -4 -4 -3 -2 -3 -3 -3 -4 -6 -4 -4 -5 -2 -3 -2 -2 -2 -2 -3 -3 -4 -4 -5 -5 -5 -5 -5 -6 -6 -6 -6 -7 -7 -6 -6 -6
-28 -29 -13 -11 -11 -14 -7 -3 -3 -4 -4 -3 -3 -4 -4 -5 -5 -5 -5 -4 -5 -4 -2 -4 -3 -3 -4 -5 -5 -3 -1 -1 -2 -1 -2 -3 -3 -3 -4 -4 -4 -5 -5 -5 -5 -6 -6 -6 -6 -6 -6 -6 -6 -6
-22 -30 -14 -10 -10 -10 -5 -4 -4 -5 -5 -6 -4 -3 -4 -5 -5 -6 -5 -5 -5 -6 -4 -4 -4 -5 -4 -4 -3 -3 -2 -2 -2 -2 -3 -4 -4 -4 -4 -4 -4 -5 -5 -5 -6 -5 -5 -5 -6 -5 -5 -6 -6 -6
-20 -17 -8 -6 -8 -10 -8 -5 -4 -4 -5 -4 -4 -4 -3 -3 -3 -4 -4 -5 -5 -6 -5 -4 -4 -5 -4 -6 -6 -4 -2 -2 -3 -3 -4 -4 -4 -4 -4 -4 -4 -4 -5 -5 -5 -5 -6 -6 -6 -5 -5 -6 -6 -6
-20 -7 -4 -4 -6 -7 -6 -9 -7 -6 -5 -5 -3 -3 -4 -4 -3 -3 -4 -3 -4 -5 -6 -7 -7 -6 -4 -5 -5 -3 -3 -3 -3 -3 -4 -4 -4 -4 -4 -4 -4 -4 -5 -5 -6 -6 -6 -6 -5 -4 -5 -5 -5 -6
-17 -8 -5 -5 -4 -5 -8 -7 -7 -7 -4 -4 -4 -4 -5 -6 -4 -3 -5 -4 -5 -5 -6 -6 -6 -3 -3 -2 -4 -3 -3 -3 -4 -4 -3 -3 -3 -4 -4 -5 -5 -5 -5 -6 -6 -6 -6 -6 -5 -5 -5 -5 -5 -5
-16 -6 -5 -5 -5 -8 -7 -7 -7 -6 -7 -5 -4 -5 -5 -6 -3 -4 -4 -5 -4 -4 -4 -5 -5 -5 -3 -2 -3 -4 -4 -4 -3 -3 -3 -3 -3 -3 -4 -4 -4 -4 -4 -5 -4 -5 -4 -4 -4 -4 -4 -4 -5 -6
-7 -8 -6 -7 -6 -6 -6 -6 -6 -6 -7 -7 -7 -7 -7 -5 -6 -6 -5 -6 -5 -5 -4 -3 -3 -3 -3 -3 -3 -3 -4 -5 -5 -5 -6 -5 -4 -4 -4 -3 -3 -3 -4 -4 -3 -3 -3 -3 -3 -3 -4 -4 -4 -5
-10 -10 -8 -10 -11 -7 -7 -7 -7 -8 -8 -8 -8 -6 -8 -8 -8 -8 -7 -7 -7 -6 -6 -5 -5 -5 -5 -5 -5 -5 -4 -5 -4 -4 -5 -4 -5 -4 -4 -4 -4 -3 -3 -3 -3 -3 -3 -3 -3 -3 -4 -4 -4 -5
-10 -11 -8 -8 -7 -7 -8 -7 -7 -8 -9 -9 -8 -9 -10 -11 -11 -11 -8 -7 -7 -7 -7 -8 -8 -8 -7 -7 -7 -7 -7 -7 -6 -6 -6 -5 -5 -5 -4 -4 -5 -5 -4 -3 -3 -4 -4 -3 -3 -4 -4 -4 -4 -5
-10 -10 -10 -10 -8 -7 -9 -7 -6 -8 -9 -8 -8 -9 -10 -10 -11 -8 -9 -8 -9 -14 -16 -15 -16 -18 -19 -20 -19 -16 -13 -10 -8 -7 -7 -7 -6 -5 -5 -4 -4 -4 -5 -5 -4 -4 -4 -4 -5 -5 -5 -4 -5 -5
-11 -11 -9 -9 -9 -8 -9 -10 -8 -8 -9 -8 -9 -9 -10 -8 -8 -10 -12 -13 -14 -13 -14 -14 -15 -15 -15 -15 -15 -15 -16 -16 -16 -13 -10 -9 -8 -7 -7 -7 -6 -6 -5 -5 -5 -6 -6 -6 -6 -6 -5 -5 -5 -5
-13 -10 -10 -11 -10 -8 -9 -9 -8 -10 -11 -11 -11 -11 -10 -9 -10 -12 -12 -12 -12 -14 -13 -11 -10 -11 -11 -11 -12 -13 -14 -16 -16 -13 -11 -10 -10 -10 -9 -8 -8 -7 -7 -6 -6 -5 -6 -6 -6 -5 -5 -5 -5 -5
-10 -10 -11 -11 -11 -10 -10 -9 -9 -8 -9 -11 -10 -11 -11 -11 -9 -11 -12 -12 -11 -10 -10 -10 -10 -10 -11 -11 -12 -14 -15 -12 -11 -10 -10 -10 -10 -11 -12 -12 -10 -8 -8 -8 -7 -7 -6 -6 -6 -6 -6 -6 -5 -6
-11 -11 -11 -11 -11 -11 -12 -12 -12 -11 -11 -13 -12 -14 -12 -13 -11 -10 -10 -12 -13 -13 -13 -14 -11 -11 -12 -12 -13 -14 -14 -14 -14 -13 -11 -11 -11 -11 -11 -11 -10 -10 -8 -8 -8 -8 -8 -7 -7 -7 -7 -7 -7 -7
-12 -12 -12 -12 -13 -13 -11 -13 -14 -14 -13 -12 -12 -11 -11 -11 -12 -10 -11 -11 -11 -12 -12 -12 -13 -14 -14 -14 -13 -13 -13 -13 -14 -14 -14 -14 -13 -13 -12 -11 -11 -10 -10 -9 -9 -9 -9 -9 -9 -9 -9 -8 -8 -8
Wind_Speed
35 30 19 13 9 8 9 9 11 12 15 19 22 24 21 25 25 27 38 44 54 26 21 32 35 20 18 24 14 7 6 3 1 7 7 3 2 4 4 7 10 11 10 5 3 2 12 8 15 15 4 3 16 22
29 26 21 17 15 13 12 12 13 18 21 23 26 23 28 25 28 23 27 38 50 26 9 38 41 37 37 42 30 15 4 5 6 3 2 3 2 3 5 6 1 4 5 7 8 7 1 7 1 8 18 18 14 24
25 24 21 18 17 16 14 12 16 16 21 23 25 30 19 26 16 7 5 23 36 11 9 16 25 35 29 39 37 8 5 11 5 4 4 3 4 3 5 4 4 2 3 3 4 3 1 9 13 19 21 23 25 30
23 21 20 19 19 19 15 14 18 21 24 25 22 29 12 23 16 17 16 17 16 8 2 4 15 21 24 27 29 28 22 12 16 9 2 2 3 2 2 2 4 4 8 8 3 2 9 9 15 21 23 26 25 24
21 19 19 18 18 19 18 19 22 26 27 23 20 23 26 19 10 18 13 17 9 4 3 1 11 8 22 23 27 21 19 20 13 4 2 3 3 4 3 2 3 5 6 9 5 11 5 11 20 25 28 27 24 25
21 20 17 16 16 17 18 25 29 28 26 15 19 22 23 25 8 9 7 7 16 10 5 2 4 17 12 15 16 18 12 10 6 4 2 1 1 3 3 3 4 14 13 10 4 34 16 27 31 31 31 28 24 21
20 21 20 18 18 18 21 29 30 28 24 11 12 17 20 21 30 16 7 11 12 9 5 3 2 6 9 13 11 16 12 8 5 4 1 1 1 4 2 3 8 23 22 17 33 32 19 28 22 27 26 21 17 15
23 19 21 20 19 19 24 27 31 26 25 13 11 13 9 17 18 18 21 25 12 8 7 2 1 2 9 4 3 5 4 4 7 3 2 2 2 0 1 4 16 21 23 26 34 31 34 31 28 25 22 20 17 14
23 23 19 20 20 20 26 27 31 29 27 19 11 7 7 10 13 12 15 11 19 10 2 2 2 2 5 6 5 6 6 3 5 2 2 2 2 1 0 8 18 28 20 22 28 33 33 30 27 24 20 17 15 16
22 21 22 20 20 20 22 26 32 32 26 23 12 6 6 14 14 6 1 4 7 10 10 3 6 3 5 5 3 2 4 2 2 2 3 2 2 4 8 16 19 27 33 35 31 17 26 26 25 23 19 17 14 16
23 22 21 21 21 21 21 22 28 34 26 24 14 6 16 12 8 6 4 4 5 3 6 5 9 3 12 4 2 4 1 1 2 1 2 2 1 2 6 15 20 28 27 21 20 23 19 19 24 23 20 17 15 12
21 21 21 21 21 20 21 23 23 27 27 17 14 10 9 10 8 6 3 3 4 3 3 2 3 4 2 3 3 3 2 1 2 1 3 1 2 5 12 18 21 22 18 15 15 18 17 19 19 19 18 14 8 5
20 20 20 20 20 19 21 22 20 19 21 7 6 5 7 5 9 5 5 3 3 3 3 2 3 3 2 6 2 2 4 1 0 3 1 2 5 11 17 19 19 17 16 16 16 14 15 16 14 11 11 9 6 9
19 19 18 18 18 18 19 19 17 17 8 6 5 7 3 4 3 2 2 3 3 2 4 4 2 2 3 3 1 3 1 1 2 2 2 3 11 18 20 19 20 19 16 16 17 16 16 15 13 12 11 12 14 13
19 18 17 16 15 16 16 14 13 8 5 4 3 2 2 1 2 3 6 4 5 2 2 2 3 2 2 3 2 2 3 1 2 3 2 5 18 25 23 20 18 19 19 17 16 16 16 16 16 16 15 13 12 12
19 17 14 13 15 15 15 12 8 4 2 1 3 3 1 3 4 5 8 5 14 5 2 3 2 3 3 2 1 1 2 3 3 3 3 16 23 23 21 18 18 18 17 18 17 16 17 17 17 16 15 13 12 12
17 13 13 14 15 13 12 9 4 3 2 2 2 3 4 3 4 2 4 5 11 4 1 2 2 1 1 2 1 2 3 3 2 4 9 17 24 22 19 16 21 18 17 15 16 16 16 14 14 16 17 14 11 10
19 15 16 16 17 15 8 2 3 3 3 3 2 5 5 4 3 2 3 2 4 3 2 1 1 1 3 2 2 3 2 0 5 8 12 15 19 18 17 17 18 18 16 15 15 17 17 16 15 15 14 13 12 10
19 17 12 11 12 7 3 3 4 3 5 3 3 8 7 3 6 6 5 3 3 2 4 1 1 2 3 2 3 3 8 5 10 13 13 14 16 17 17 17 17 17 16 17 17 18 18 17 15 16 14 13 12 11
18 16 11 8 8 4 3 4 5 4 2 5 6 10 5 3 3 6 6 4 3 2 1 2 3 3 3 1 1 2 11 14 18 18 15 13 13 14 15 15 18 18 16 15 14 15 14 13 15 15 14 14 13 12
14 8 7 9 7 9 5 4 5 5 3 5 8 9 4 5 5 6 7 8 2 3 2 6 6 6 2 1 2 5 11 13 16 13 18 18 15 14 14 16 16 16 16 17 18 17 17 18 16 15 16 15 10 7
11 9 6 10 8 5 7 9 5 2 4 3 7 9 3 2 3 7 9 4 4 5 6 4 6 6 7 3 4 6 7 8 7 4 10 10 16 14 14 15 19 19 16 14 16 16 16 16 16 15 15 13 11 8
11 8 6 6 7 6 5 7 5 6 3 3 6 3 1 2 6 14 2 5 6 7 11 12 7 5 5 6 4 4 6 6 5 5 6 8 11 12 10 14 15 18 18 17 15 15 14 14 15 15 15 16 15 13
10 6 5 6 10 4 3 2 4 3 3 3 3 3 3 3 11 2 2 2 3 3 6 8 8 9 9 10 9 8 5 4 5 5 7 9 9 10 12 18 17 17 20 19 18 19 18 18 19 20 21 21 20 16
6 7 6 5 6 4 4 3 3 3 3 5 6 2 2 5 2 2 3 3 6 7 7 9 11 10 11 8 7 6 9 9 9 10 11 11 13 14 16 18 20 22 20 23 24 23 23 23 22 22 22 24 26 21
5 6 8 5 3 4 4 4 5 5 3 2 3 1 2 2 2 4 3 9 9 10 9 8 8 8 7 5 6 5 5 7 9 10 10 11 13 15 17 16 18 20 25 26 27 27 26 25 29 26 22 23 26 22
3 3 3 5 3 2 1 0 3 2 2 3 3 2 3 2 4 3 6 8 10 11 10 8 6 5 4 3 2 3 4 5 6 9 10 14 16 15 16 19 18 16 14 18 22 23 24 27 28 23 23 25 28 22
2 3 1 3 1 0 3 1 3 4 3 3 4 2 6 5 3 4 4 9 9 15 12 6 3 3 4 5 6 7 7 10 11 10 9 9 8 11 12 13 12 13 14 15 17 18 19 19 20 21 24 27 26 21
2 5 2 2 1 0 2 2 2 1 2 5 3 2 2 3 6 9 14 15 11 6 3 1 1 2 3 3 5 7 8 10 10 8 9 11 12 9 7 8 8 9 11 13 16 15 15 17 20 23 22 25 22 20
3 6 1 1 1 1 2 3 2 4 4 6 5 4 4 5 8 7 7 6 6 4 1 2 2 2 1 3 5 6 9 9 7 7 7 6 7 8 9 12 13 12 10 11 14 16 17 17 17 19 22 25 24 24
6 4 1 1 0 2 3 3 3 5 4 4 5 4 5 5 8 5 3 7 8 7 6 6 7 7 4 4 4 5 4 2 1 1 2 5 7 9 11 12 11 10 14 15 16 18 17 19 18 17 17 21 23 24
7 4 1 1 0 2 1 2 2 3 2 2 3 3 4 4 3 3 3 2 4 4 1 1 2 2 3 4 3 1 1 1 2 3 2 2 4 6 7 8 7 11 11 11 14 17 17 17 18 18 17 18 19 20
4 5 3 2 2 2 4 3 4 2 3 3 3 2 2 2 2 3 4 4 2 0 1 1 1 1 1 2 3 2 2 4 6 5 7 8 8 7 7 6 3 1 3 6 8 9 11 12 13 14 15 16 17 16
Wind_Direction
12 18 27 31 39 34 26 22 10 356 335 331 322 310 303 306 299 282 261 225 207 220 223 219 218 204 196 202 203 172 132 183 169 199 198 155 141 177 137 151 159 165 161 175 138 140 253 170 156 176 187 99 151 164
18 24 33 41 46 45 31 30 12 360 352 346 345 330 329 319 319 281 239 226 218 205 238 216 222 216 211 201 198 173 209 164 157 139 152 129 155 160 152 187 161 188 184 170 188 200 96 216 344 195 156 152 150 150
21 25 30 34 34 27 23 21 12 360 354 349 347 340 337 344 358 237 243 215 181 178 158 187 191 212 221 215 212 179 215 186 191 146 152 139 145 164 165 215 94 322 132 109 113 235 158 146 155 157 161 151 150 145
13 18 15 18 19 17 14 3 353 352 349 345 346 343 340 347 48 110 64 125 138 103 98 48 137 167 189 202 201 202 206 175 165 154 90 108 124 188 174 182 140 182 139 137 35 179 95 164 177 162 148 147 146 147
9 12 13 9 11 10 6 0 353 346 346 349 351 355 1 356 5 68 80 79 131 216 127 63 83 106 186 187 194 193 189 168 142 96 111 168 159 166 155 135 163 182 164 177 195 177 122 177 180 162 147 141 145 144
4 358 1 1 359 2 2 355 352 348 353 360 3 11 3 37 359 15 56 39 79 63 87 70 51 47 139 190 193 184 172 142 107 112 114 161 32 72 119 207 193 181 169 148 157 172 173 156 151 147 141 139 139 141
357 356 350 348 350 352 353 353 356 349 351 341 343 10 22 34 41 48 54 16 63 56 71 90 61 11 49 93 91 86 106 95 94 96 80 118 84 106 180 206 181 172 168 151 149 142 112 141 140 143 142 143 147 146
353 346 347 345 341 343 349 354 360 358 357 345 317 342 14 29 39 34 45 41 25 57 61 82 62 55 21 38 79 64 75 75 48 95 75 56 70 251 2 321 144 162 149 145 150 161 149 144 139 143 149 149 147 147
341 345 340 338 336 339 347 354 2 359 356 353 339 311 334 3 2 6 26 50 47 59 84 53 28 56 19 38 60 52 40 52 23 55 63 136 297 28 114 126 128 136 143 130 135 140 141 143 142 144 148 150 148 145
331 333 340 335 335 339 346 351 0 1 357 1 2 17 355 340 340 4 41 23 46 25 39 34 8 55 39 19 49 62 34 46 47 22 352 55 29 349 59 130 131 142 141 141 119 118 137 141 149 154 160 160 159 162
323 327 326 332 333 334 343 349 350 358 0 3 350 343 336 355 12 28 25 45 12 34 20 6 18 51 25 47 72 30 100 354 85 336 89 97 316 351 105 130 140 144 146 147 156 157 161 165 164 161 159 161 166 174
310 319 323 323 326 331 335 345 346 348 351 323 318 312 337 14 22 59 4 4 35 32 16 10 11 63 45 14 78 357 86 30 80 332 66 90 271 145 140 135 143 150 152 138 147 153 155 159 163 162 160 159 165 185
302 308 318 319 321 326 330 336 343 342 347 351 342 337 7 341 35 37 6 8 21 357 356 52 28 21 50 36 71 61 65 44 134 44 162 209 143 145 150 141 138 144 148 146 144 151 154 150 150 166 171 178 199 173
299 301 309 316 317 324 328 333 337 346 357 15 13 4 77 358 46 15 343 295 305 314 75 40 47 57 354 50 358 73 338 73 59 64 236 178 164 155 158 151 145 144 149 147 147 151 152 153 159 166 177 184 165 158
302 298 301 304 306 319 321 330 332 345 355 37 41 31 31 256 255 288 320 337 16 336 15 46 52 56 11 66 30 94 38 21 198 227 233 167 162 165 163 161 158 156 156 149 148 153 158 163 161 155 155 156 163 160
308 302 290 286 299 316 322 317 324 321 311 88 95 93 107 54 317 358 0 14 11 2 354 41 66 50 2 108 89 198 160 203 246 216 170 154 162 168 163 159 157 155 152 150 154 157 159 156 157 158 160 158 163 175
303 289 285 288 301 310 317 315 303 277 266 186 246 158 152 156 189 158 354 340 353 3 59 68 61 38 81 37 292 185 204 230 209 124 149 167 170 168 168 167 161 164 166 165 164 166 161 159 166 163 154 149 146 157
291 290 281 287 301 317 319 248 264 264 253 197 168 204 182 176 185 208 215 205 11 25 19 28 308 167 179 200 260 241 219 316 141 148 159 166 166 168 167 170 169 173 172 170 171 169 169 173 177 169 161 163 156 159
287 295 283 279 284 300 279 238 225 251 238 227 216 186 187 204 242 255 213 238 295 268 315 66 200 215 235 219 203 217 178 163 146 138 150 164 171 170 171 173 174 175 176 175 179 180 183 185 186 170 168 171 175 179
277 287 276 251 235 232 251 238 210 245 231 224 199 186 180 203 211 203 205 251 201 172 340 218 218 226 207 162 180 203 174 162 151 143 147 161 177 184 189 191 179 175 178 181 181 179 175 176 174 179 183 183 187 188
276 273 231 225 219 226 263 255 232 231 218 200 198 166 180 190 200 182 182 184 195 198 239 237 245 300 217 53 57 153 170 178 177 181 173 169 177 186 187 186 184 188 187 186 186 185 189 184 179 189 191 189 182 179
245 222 222 203 213 224 248 229 225 218 200 215 162 185 144 164 179 203 173 166 218 226 218 249 265 238 201 208 204 190 192 187 193 184 174 182 180 180 190 193 190 191 189 187 186 189 191 191 192 193 189 189 193 201
234 221 225 213 223 219 247 202 200 197 199 202 155 172 209 196 194 157 171 208 214 223 238 250 231 174 174 158 171 188 188 187 198 220 224 211 212 223 221 210 211 211 207 209 213 208 207 202 204 205 203 204 208 208
198 210 211 215 206 234 202 217 215 208 183 183 176 201 187 193 162 172 196 185 190 259 228 225 212 192 181 186 180 167 187 248 254 261 252 253 258 254 242 234 233 232 231 230 221 222 221 222 218 217 217 216 211 217
180 220 202 225 214 189 180 203 191 203 194 194 183 229 223 155 163 178 189 187 152 146 135 160 174 180 171 165 171 183 199 208 222 239 249 258 261 255 252 249 239 234 235 237 233 233 232 225 221 222 224 223 218 213
192 215 176 200 248 171 190 175 189 191 152 148 192 107 92 99 126 235 201 173 152 151 143 146 143 142 144 171 193 203 214 235 240 238 245 256 259 255 253 252 246 238 227 230 234 237 238 239 229 221 224 225 221 216
232 272 227 229 242 234 65 32 101 106 161 161 174 112 96 152 234 248 148 158 152 149 138 129 128 132 142 169 199 228 257 263 258 255 259 255 251 247 259 244 249 258 253 240 235 237 241 246 221 221 228 238 216 216
299 315 174 286 204 324 139 136 147 178 194 185 109 159 167 185 226 152 156 160 147 143 132 114 74 35 354 312 286 278 272 265 258 256 264 274 277 249 248 249 245 250 257 256 239 229 226 230 235 235 230 227 211 214
323 338 320 321 313 222 191 175 185 119 31 162 124 141 162 77 117 134 138 146 153 165 173 174 257 313 330 336 337 330 313 297 292 287 275 268 264 260 265 253 241 246 257 252 231 228 235 237 234 232 231 214 214 219
287 345 354 335 212 211 8 17 51 80 70 102 100 107 99 111 127 128 150 178 212 253 244 194 207 241 279 314 321 317 319 315 296 272 276 278 280 284 282 267 262 253 243 246 246 237 235 232 230 230 228 217 212 215
307 290 152 98 93 1 37 67 96 105 108 103 103 101 114 126 159 175 220 233 236 238 243 247 248 235 254 291 300 333 359 30 75 185 248 279 296 298 288 274 264 258 242 237 245 243 240 233 226 219 211 210 213 219
339 343 317 131 211 80 51 54 59 70 69 85 74 101 121 123 111 132 39 110 141 167 241 173 200 247 267 277 283 280 38 36 350 356 335 290 311 309 311 317 285 251 251 258 249 241 240 238 231 228 229 228 225 220
324 348 4 37 27 29 31 49 33 37 43 51 44 83 86 100 125 115 88 96 119 229 265 223 182 133 96 113 141 177 241 296 312 302 278 272 281 296 307 287 314 16 200 209 215 225 230 230 234 239 236 230 229 230
Height
1319 1310 1305 1303 1303 1303 1302 1302 1300 1297 1294 1290 1285 1279 1273 1266 1258 1252 1243 1246 1251 1254 1259 1260 1263 1267 1273 1280 1283 1290 1299 1297 1300 1294 1293 1306 1307 1308 1314 1313 1317 1323 1338 1344 1355 1359 1340 1328 1338 1336 1333 1332 1334 1340
1324 1318 1313 1309 1307 1306 1304 1302 1299 1296 1291 1285 1279 1271 1264 1255 1243 1232 1228 1230 1236 1245 1247 1251 1253 1259 1262 1264 1271 1279 1279 1280 1287 1293 1297 1302 1308 1310 1308 1314 1313 1317 1314 1325 1324 1323 1323 1324 1323 1324 1326 1332 1336 1338
1328 1323 1319 1315 1312 1309 1305 1302 1298 1294 1289 1282 1275 1266 1257 1248 1234 1226 1221 1218 1228 1239 1244 1247 1247 1252 1260 1262 1266 1273 1277 1275 1274 1274 1283 1292 1297 1303 1308 1311 1310 1311 1312 1320 1322 1321 1320 1323 1326 1328 1330 1332 1338 1342
1332 1327 1323 1319 1315 1311 1307 1302 1297 1291 1285 1278 1271 1263 1254 1246 1236 1229 1227 1225 1230 1232 1240 1242 1242 1249 1253 1257 1261 1264 1267 1272 1275 1277 1283 1288 1294 1293 1302 1300 1302 1305 1310 1316 1324 1321 1321 1326 1328 1330 1332 1336 1341 1347
1335 1329 1324 1320 1316 1311 1306 1302 1296 1290 1283 1275 1269 1262 1253 1246 1240 1233 1233 1233 1234 1238 1239 1244 1245 1247 1250 1255 1259 1263 1266 1270 1272 1279 1284 1289 1292 1297 1300 1299 1295 1292 1300 1303 1309 1312 1313 1320 1327 1330 1333 1336 1341 1345
1336 1331 1325 1320 1316 1311 1306 1301 1295 1287 1280 1275 1269 1264 1256 1247 1242 1238 1237 1237 1234 1233 1237 1248 1253 1250 1251 1254 1255 1258 1264 1267 1272 1277 1283 1284 1282 1282 1289 1295 1288 1292 1294 1298 1306 1309 1315 1319 1327 1330 1334 1338 1343 1348
1335 1331 1327 1321 1316 1311 1305 1300 1293 1286 1280 1275 1270 1266 1260 1253 1247 1243 1248 1244 1238 1238 1242 1252 1256 1257 1255 1255 1259 1262 1267 1269 1270 1276 1282 1283 1287 1289 1293 1290 1281 1287 1294 1300 1303 1309 1317 1320 1327 1331 1335 1342 1346 1350
1334 1330 1326 1321 1316 1311 1305 1299 1293 1285 1279 1273 1269 1266 1262 1258 1256 1251 1250 1247 1244 1243 1248 1254 1260 1260 1260 1261 1264 1266 1269 1271 1276 1281 1285 1286 1289 1290 1289 1283 1283 1289 1295 1302 1303 1306 1311 1320 1327 1333 1338 1343 1347 1352
1333 1328 1323 1320 1315 1310 1305 1299 1291 1285 1278 1272 1267 1263 1261 1259 1255 1256 1253 1251 1249 1250 1253 1259 1260 1264 1265 1265 1267 1270 1272 1277 1281 1283 1287 1289 1291 1291 1287 1287 1288 1294 1298 1304 1305 1309 1317 1321 1327 1334 1338 1342 1345 1350
1330 1327 1322 1317 1314 1310 1305 1299 1292 1285 1278 1272 1267 1264 1263 1261 1256 1254 1254 1252 1254 1259 1263 1266 1267 1268 1270 1269 1273 1277 1280 1284 1285 1290 1290 1292 1293 1292 1290 1292 1294 1296 1299 1301 1306 1315 1320 1325 1329 1334 1339 1342 1344 1349
1328 1324 1320 1316 1312 1308 1304 1299 1293 1286 1278 1274 1272 1269 1266 1261 1258 1256 1259 1262 1265 1271 1274 1274 1273 1273 1277 1276 1279 1282 1286 1287 1288 1293 1292 1297 1296 1297 1296 1295 1297 1300 1304 1306 1309 1313 1320 1324 1329 1333 1338 1341 1346 1347
1325 1321 1318 1314 1310 1306 1303 1300 1295 1290 1286 1282 1279 1273 1269 1266 1265 1268 1277 1275 1277 1281 1281 1281 1281 1281 1282 1281 1282 1286 1288 1288 1290 1294 1295 1298 1299 1298 1299 1299 1302 1305 1307 1310 1314 1318 1323 1327 1330 1333 1337 1340 1344 1345
1321 1319 1315 1312 1309 1305 1301 1298 1295 1292 1286 1282 1280 1277 1277 1280 1287 1285 1289 1285 1287 1286 1284 1283 1285 1283 1283 1283 1286 1287 1291 1296 1295 1301 1298 1298 1299 1300 1301 1303 1305 1308 1311 1314 1317 1321 1325 1328 1331 1335 1337 1340 1343 1344
1318 1315 1313 1310 1307 1304 1300 1297 1294 1290 1287 1286 1286 1292 1293 1300 1295 1292 1292 1292 1289 1287 1285 1284 1286 1286 1286 1286 1290 1292 1295 1295 1305 1308 1296 1297 1298 1300 1304 1306 1308 1312 1315 1318 1321 1324 1327 1329 1331 1335 1337 1340 1342 1345
1314 1312 1310 1307 1305 1302 1299 1296 1294 1291 1289 1288 1290 1303 1299 1296 1295 1294 1293 1290 1290 1288 1287 1286 1288 1288 1290 1292 1292 1294 1299 1303 1297 1301 1296 1293 1296 1300 1304 1308 1311 1314 1317 1320 1323 1325 1328 1330 1332 1335 1338 1340 1343 1344
1310 1308 1306 1304 1302 1300 1298 1295 1294 1292 1290 1289 1290 1295 1297 1298 1298 1293 1292 1291 1291 1289 1289 1289 1291 1296 1295 1293 1291 1298 1293 1296 1295 1292 1290 1292 1296 1301 1305 1309 1313 1316 1319 1321 1324 1327 1329 1331 1334 1336 1339 1340 1343 1346
1308 1306 1304 1302 1300 1299 1297 1295 1294 1292 1290 1289 1290 1290 1292 1293 1294 1294 1294 1293 1292 1291 1294 1293 1296 1292 1295 1297 1294 1294 1297 1292 1290 1290 1291 1293 1297 1302 1306 1310 1314 1317 1320 1323 1325 1328 1331 1333 1336 1337 1339 1342 1345 1347
1304 1303 1302 1300 1299 1296 1294 1294 1294 1291 1289 1288 1289 1286 1287 1289 1291 1292 1293 1294 1293 1293 1293 1294 1295 1293 1302 1293 1296 1291 1289 1289 1290 1291 1293 1296 1300 1304 1307 1311 1314 1318 1320 1323 1325 1328 1331 1333 1335 1337 1341 1343 1344 1348
1300 1298 1298 1298 1297 1297 1295 1292 1292 1289 1286 1285 1285 1285 1286 1287 1287 1289 1291 1293 1294 1294 1294 1294 1295 1296 1294 1291 1290 1288 1288 1289 1290 1293 1296 1300 1302 1305 1308 1311 1314 1317 1320 1323 1325 1327 1330 1332 1335 1337 1340 1342 1345 1348
1294 1294 1294 1294 1295 1295 1292 1289 1288 1286 1284 1282 1283 1283 1284 1285 1285 1286 1289 1291 1291 1292 1294 1294 1292 1289 1287 1287 1287 1287 1288 1291 1292 1295 1298 1301 1304 1306 1309 1310 1313 1317 1320 1322 1324 1326 1328 1332 1334 1337 1340 1343 1345 1347
1289 1289 1289 1290 1291 1292 1289 1284 1283 1282 1280 1280 1279 1281 1282 1283 1285 1285 1287 1289 1291 1291 1291 1287 1286 1286 1286 1287 1288 1289 1291 1293 1294 1296 1299 1302 1305 1307 1309 1311 1314 1317 1319 1320 1322 1325 1328 1330 1334 1337 1339 1342 1343 1344
1285 1286 1286 1287 1287 1287 1283 1279 1278 1277 1279 1277 1278 1279 1280 1282 1283 1284 1286 1288 1287 1285 1285 1283 1284 1285 1286 1287 1288 1289 1292 1294 1297 1298 1301 1303 1304 1307 1309 1311 1313 1316 1318 1320 1322 1325 1327 1330 1333 1335 1337 1338 1341 1343
1281 1283 1282 1282 1282 1280 1276 1274 1274 1273 1274 1273 1275 1276 1278 1278 1277 1280 1283 1281 1281 1281 1281 1282 1284 1285 1286 1288 1290 1291 1292 1294 1296 1299 1301 1303 1304 1306 1308 1310 1313 1315 1317 1319 1322 1324 1326 1328 1330 1332 1334 1337 1339 1342
1277 1278 1277 1275 1273 1272 1270 1269 1269 1268 1268 1269 1270 1272 1272 1273 1275 1277 1278 1278 1279 1278 1279 1280 1281 1283 1285 1287 1289 1291 1293 1294 1296 1297 1299 1300 1302 1304 1305 1307 1309 1312 1314 1317 1319 1321 1323 1325 1327 1329 1332 1334 1336 1339
1274 1272 1270 1267 1266 1267 1267 1266 1265 1265 1267 1267 1268 1272 1271 1270 1274 1277 1275 1277 1277 1278 1279 1280 1281 1282 1284 1286 1288 1289 1290 1292 1293 1295 1297 1298 1300 1301 1301 1302 1304 1306 1309 1311 1313 1316 1318 1321 1323 1325 1327 1329 1332 1334
1268 1261 1262 1262 1263 1262 1261 1263 1264 1266 1265 1268 1267 1267 1268 1272 1276 1276 1271 1273 1274 1277 1279 1281 1282 1283 1284 1286 1287 1288 1289 1290 1291 1292 1294 1295 1296 1297 1298 1298 1299 1300 1303 1305 1307 1310 1312 1315 1317 1319 1322 1324 1327 1330
1263 1261 1257 1258 1257 1256 1258 1257 1257 1261 1265 1267 1266 1269 1272 1278 1279 1273 1272 1273 1275 1277 1280 1282 1283 1285 1286 1287 1288 1288 1288 1289 1289 1290 1290 1290 1291 1292 1294 1294 1295 1297 1299 1300 1301 1303 1306 1308 1310 1313 1316 1318 1321 1325
1261 1260 1262 1259 1257 1257 1258 1258 1258 1261 1261 1260 1263 1268 1270 1272 1274 1271 1273 1275 1277 1279 1281 1283 1284 1285 1286 1286 1287 1286 1286 1287 1287 1287 1288 1288 1288 1288 1290 1291 1291 1293 1294 1295 1297 1299 1301 1304 1306 1308 1311 1313 1317 1320
1261 1260 1259 1259 1257 1256 1257 1258 1257 1258 1259 1259 1263 1268 1269 1269 1270 1272 1274 1276 1279 1281 1282 1283 1284 1285 1285 1286 1285 1285 1284 1284 1285 1285 1285 1285 1286 1287 1287 1287 1287 1289 1290 1291 1293 1295 1297 1299 1300 1302 1305 1308 1312 1315
1262 1261 1261 1260 1260 1258 1259 1258 1258 1259 1259 1261 1263 1266 1268 1271 1273 1274 1276 1278 1279 1280 1281 1282 1282 1283 1284 1284 1285 1284 1283 1282 1282 1283 1283 1284 1284 1285 1284 1285 1285 1286 1287 1288 1290 1291 1293 1295 1296 1298 1300 1303 1306 1310
1262 1261 1261 1260 1261 1260 1260 1259 1260 1260 1261 1263 1265 1266 1268 1271 1274 1275 1276 1276 1277 1278 1279 1280 1280 1281 1282 1282 1282 1282 1282 1282 1281 1282 1282 1283 1283 1283 1282 1282 1282 1283 1283 1285 1287 1288 1290 1291 1293 1295 1296 1299 1302 1305
1263 1262 1260 1260 1260 1261 1261 1261 1262 1262 1264 1264 1265 1267 1269 1270 1272 1274 1275 1275 1276 1277 1277 1277 1278 1278 1279 1279 1280 1281 1281 1281 1281 1281 1281 1281 1281 1281 1280 1279 1278 1279 1280 1281 1283 1285 1287 1289 1290 1292 1294 1296 1299 1301
1264 1263 1262 1261 1262 1262 1263 1263 1263 1265 1266 1267 1268 1268 1269 1270 1273 1275 1275 1275 1276 1276 1276 1277 1277 1277 1277 1278 1279 1279 1280 1280 1280 1280 1280 1280 1280 1280 1280 1279 1279 1278 1278 1279 1281 1282 1284 1286 1288 1290 1291 1293 1295 1297